C/2017 K5 ( PanSTARRS )

Japanese version
Home page
Updated on August 28, 2018

---------------------------------------------------------------------

* Profile

Discovery Date May 27, 2017
Magnitude 22.0 mag
Discoverer Pan-STARRS 1 telescope (Haleakala)

* Pictures

* Orbital Elements

Epoch 2020 Mar. 12.0 TT = JDT 2458920.5
T 2020 Mar. 24.32924 TT                                 MPCW
q   7.6784176            (2000.0)            P               Q
z  -0.0007842      Peri.  171.84182     +0.19349061     +0.16058730
 +/-0.0000086      Node   102.37569     -0.94678372     +0.28920122
e   1.0060215      Incl.   82.26260     -0.25721970     -0.94370248
From 25 observations 2017 May 27-2018 May 12, mean residual 0".3.

* Magnitudes Graph

        m1 = 6.0 + 5 log d + 10.0 log r

---------------------------------------------------------------------

The orbital elements are published on M.P.E.C. 2018-K95.
The magnitudes graphs are made with Comet for Windows.

---------------------------------------------------------------------

Copyright(C) Seiichi Yoshida (comet@aerith.net). All rights reserved.